Location: Ojai
(34.4480°N, 119.2420°W)
Time: 11:35:16
(UTC-08:00)

OTV 5 (USA 277) - Visible Passes

Search period start: 16 December 2018 00:00
Search period end: 26 December 2018 00:00
Orbit: 340 x 348 km, 54.5° (Epoch: 10 December)

Date Brightness Start Highest point End Pass type
(mag) Time Alt. Az. Time Alt. Az. Time Alt. Az.
16 Dec ? 05:33:02 51° NNW 05:33:37 73° NE 05:36:27 10° SE visible
17 Dec ? 05:56:20 20° WSW 05:57:07 22° SW 05:59:26 10° S visible
18 Dec ? 04:48:16 15° SE 04:48:16 15° SE 04:48:52 10° SE visible
19 Dec ? 05:11:44 11° S 05:11:44 11° S 05:11:55 10° S visible
22 Dec ? 17:58:13 10° SSE 17:59:19 13° SE 17:59:19 13° SE visible
23 Dec ? 18:20:10 10° SSW 18:22:42 50° SSE 18:22:42 50° SSE visible
24 Dec ? 18:43:59 10° WSW 18:46:01 28° WNW 18:46:01 28° WNW visible
25 Dec ? 17:32:35 10° SSW 17:35:24 50° SE 17:37:48 13° NE visible
